Погода в Вознесенке

Украина / Запорожская область     46°52′07″N   35°27′19″E
темп.,
°C
ветер,
м/с
пор.,
м/с
влажн.,
%
обл.,
%
осадки,
мм/ч
давл.,
гПа
погр.,
м
16 мая, пн
пн1600:00+13з476747 0.0 1016115
03:00+11зсз497711 0.0 1016190
06:00+11зсз37819 0.0 1016151
09:00+18сз58475 0.0 10171515
12:00+20сз674151 0.0 10172334
15:00+21сз673758 0.0 10172532
18:00+18сз3551100 0.0 1017161
21:00+16зсз2250100 0.0 101735
17 мая, вт
вт1700:00+15сз3455100 0.0 101782
03:00+14сз355998 0.0 1016109
06:00+13ссз2566100 0.0 1016148
09:00+15сз2359100 0.0 1016460
12:00+18зсз3649100 0.0 10161636
15:00+19з3649100 0.2 10141595
18:00+18зюз355357 0.0 1014916
21:00+14юз467393 0.0 101392
18 мая, ср
ср1800:00+15зюз4971100 0.1 1012214
03:00+13зсз3587100 0.3 1011116
06:00+12сз4795100 2.8 1010308
09:00+13св5768100 4.3 1011805
12:00+13ссв4764100 0.1 10121041
15:00+16ссз6737100 0.1 10122242
18:00+14ссз8954100 0.1 10141341
21:00+10с6126891 0.1 1017579
19 мая, чт
чт1900:00+8ссз4118443 0.0 1019368
03:00+9ссз611848 0.0 1019438
06:00+8сз410935 0.0 1022377
09:00+14ссз67655 0.0 10231005
12:00+17сз6750100 0.3 10241967
15:00+17зсз584562 0.3 10241943
18:00+18ссз584599 0.0 10232187
21:00+14з2356100 0.0 102322
20 мая, пт
пт2000:00+13зюз596493 0.0 1023227
03:00+11з497489 0.0 1022172
06:00+10з4982100 0.0 1022187
09:00+14зсз4867100 0.0 1022374
12:00+18сз4753100 0.0 10221166
15:00+19ссз465278 0.0 1020477
18:00+21ююв1248100 0.0 1018267
21:00+16юз51160100 0.0 1018296